Orbital elements:
2007 UM12                                                Earth MOID = 0.0770 AU
Epoch 2023 Sept. 13.0 TT = JDT 2460200.5                Veres                   
M 354.56896              (2000.0)            P               Q                  
n   0.43176930     Peri.  152.55961     +0.99651623     -0.01128894             
a   1.7336771      Node   208.45439     -0.00992116     +0.96771437             
e   0.3911970      Incl.    9.98720     +0.08280680     +0.25179644             
P   2.28           H   21.58          G   0.15           U   0                  
Residuals in seconds of arc
071026 G96  0.3+  0.0     071030 H55  0.2-  0.2+    231004 G02  0.1-  0.0
071026 G96  0.3-  0.1+    071103 H55  0.1-  0.1+    231004 L47 (0.3+  1.6+)
071026 G96  0.3-  0.3+    071103 H55  0.2-  0.1+    231004 G02  0.2-  0.4-
071026 G96  0.0   0.3-    071103 H55  0.1+  0.0     231004 L47  0.7+  1.1+
071026 G96  0.3+  0.3+    071103 G96  0.1-  0.2-    231004 L47  0.9+  1.1+
071026 G96  0.2+  0.0     071103 G96  0.2-  0.3-    231004 104  0.5-  0.1+
071026 G96  0.2+  0.1+    071103 G96  0.4+  0.4-    231004 104  0.1+  0.1+
071026 G96  0.0   0.5+    071103 G96  0.3-  0.4-    231004 104  0.3-  0.1+
071027 G96  0.5-  0.3+    071116 696  0.1-  0.8+    231004 L01  0.2-  0.0
071027 G96  0.3-  0.2+    071116 696  0.2+  0.3+    231004 L01  0.1-  0.1+
071027 G96  0.2-  0.2-    071117 474  0.3+  0.3-    231004 L01  0.5-  0.2-
071027 G96  0.2-  0.5+    071117 474  0.1+  0.1-    231004 L01  0.5-  0.4-
071027 H01  0.2-  0.1+    071117 474  0.6+  0.3-    231004 958  0.1-  0.2-
071027 H01  0.0   0.0     071205 715  0.6-  0.2+    231004 958  0.1-  0.3-
071027 H01  0.2-  0.3+    071205 715  0.2-  0.1+    231004 C95  0.0   0.2-
071027 H01  0.1-  0.1+    071205 715  0.5-  0.7+    231004 958  0.2+  0.2-
071027 H01  0.2+  0.0     231004 G96  0.0   0.2-    231004 C95  0.3-  0.3-
071027 H01  0.1-  0.1-    231004 G96  0.0   0.1-    231004 073  0.9-  0.1-
071027 H01  0.3-  0.4+    231004 G96  0.1+  0.1-    231004 C95  0.3-  0.2-
071027 H01  0.1-  0.0     231004 G96  0.1+  0.2-    231004 073  0.6-  1.8+
071027 H01  0.1-  0.0     231004 H01  0.1+  0.1-    231004 073  0.0   0.1-
071027 E12  0.2+  0.1+    231004 H01  0.0   0.1-    231004 C95  0.2+  1.0+
071027 E12  0.1+  0.4-    231004 H01  0.1+  0.1-    231004 I93  0.0   0.2-
071028 H55  0.3-  0.1+    231004 H01  0.1+  0.1-    231004 K74  0.0   0.1+
071028 H55  0.2-  0.0     231004 I52  0.1+  0.1-    231004 I93  0.0   0.1-
071028 H55  0.2-  0.0     231004 I52  0.0   0.1-    231004 K74  0.2-  0.1-
071028 H01  0.3-  0.1+    231004 I52  0.1+  0.1-    231004 K74  0.0   0.1-
071028 H01  0.6-  0.1-    231004 I52  0.0   0.2-    231004 I93  0.0   0.1-
071028 H01  0.6-  0.3+    231004 C40  0.5-  0.7+    231004 C40  0.0   0.1+
071028 H01  0.1+  0.0     231004 C40  0.1-  0.2+    231004 C40  0.0   0.1+
071028 H01  0.2-  0.1+    231004 C40  0.1-  1.1+    231004 C40  0.1+  0.0
071028 J95  0.7+  0.5-    231004 C82  0.6-  0.2-    231005 Z84  0.1+  0.1-
071028 J95  0.1-  0.3-    231004 C82  0.5+  0.1+    231005 Z84  0.2+  0.0
071029 H55  0.2+  0.1+    231004 C82  0.1-  0.1+    231005 Z84  0.2+  0.0
071029 H55  0.4+  0.0     231004 C82  0.5+  0.1-    231005 718  0.2+  0.4+
071029 H55  0.1-  0.1+    231004 C82  0.4+  0.4+    231005 718  0.1+  0.1-
071029 682 (3.0+  0.0 )   231004 C40  0.5-  0.1+    231005 718  0.4+  0.5+
071029 682  1.8+  0.1-    231004 C40  0.0   0.5+    231005 718  0.2+  0.3+
071029 682  1.5+  0.5-    231004 G02  0.0   0.4-    231005 718  2.1+  0.2+
071030 H55  0.1+  0.1-    231004 G02  0.1-  0.5-    231005 718  0.0   0.5+
071030 H55  0.0   0.0     231004 C40  0.2+  0.4+

Ephemeris:
2007 UM12                a,e,i = 1.73, 0.39, 10                  q = 1.0555
Date    TT    R. A. (2000) Decl.     Delta      r    Elong.  Phase     V
2023 09 05    19 26 19.6 +42 32 33   0.1584  1.0771   111.7    60.5    19.9
...
2023 09 20    20 30 26.8 +47 54 59   0.1132  1.0571   114.8    59.6    19.1
...
2023 09 28    21 48 16.4 +48 49 36   0.09236 1.0558   123.3    52.5    18.5
...
2023 10 04    23 10 19.3 +45 25 40   0.08140 1.0591   134.4    42.4    17.9
2023 10 05    23 24 44.5 +44 19 08   0.08017 1.0601   136.7    40.3    17.8
2023 10 06    23 39 02.1 +43 02 38   0.07916 1.0611   139.1    38.1    17.7
...
2023 10 12    00 56 02.9 +32 30 17   0.07810 1.0693   154.5    23.7    17.3
...
2023 10 20    02 04 26.8 +16 28 48   0.09071 1.0856   170.6     8.6    17.1
...
2023 11 04    03 00 54.5 -01 13 19   0.1449  1.1309   162.4    15.4    18.5

A. U. Tomatic                (C) Copyright 2023 MPC           M.P.E.C. 2023-T28





More information about the Iaude mailing list